Time,TemperatureF,DewpointF,PressureIn,WindDirection,WindDirectionDegrees,WindSpeedMPH,WindSpeedGustMPH,Humidity,HourlyPrecipIn,Conditions,Clouds,dailyrainin,SoftwareType,DateUTC
2013-03-16 00:02:00,59.7,0.0,0.00,WNW,300,5.6,10.6,0,0.00,,,0.00,WUHU216PEETBRO,2013-03-16 05:02:00,
2013-03-16 00:07:00,59.4,0.0,0.00,West,262,3.5,10.3,0,0.00,,,0.00,WUHU216PEETBRO,2013-03-16 05:07:00,
2013-03-16 00:12:00,59.6,0.0,0.00,WNW,282,4.0,10.3,0,0.00,,,0.00,WUHU216PEETBRO,2013-03-16 05:12:00,
2013-03-16 00:17:00,59.1,0.0,0.00,WNW,290,3.8,8.0,0,0.00,,,0.00,WUHU216PEETBRO,2013-03-16 05:17:00,
2013-03-16 00:22:00,59.4,0.0,0.00,WSW,255,3.8,9.7,0,0.00,,,0.00,WUHU216PEETBRO,2013-03-16 05:22:00,
2013-03-16 00:27:00,59.4,0.0,0.00,WSW,254,5.7,9.7,0,0.00,,,0.00,WUHU216PEETBRO,2013-03-16 05:27:00,
2013-03-16 00:32:00,59.4,0.0,0.00,WNW,286,0.0,7.3,0,0.00,,,0.00,WUHU216PEETBRO,2013-03-16 05:32:00,
2013-03-16 00:37:00,59.1,0.0,0.00,SW,220,2.4,8.1,0,0.00,,,0.00,WUHU216PEETBRO,2013-03-16 05:37:00,
2013-03-16 00:42:00,58.8,0.0,0.00,WNW,302,3.9,8.1,0,0.00,,,0.00,WUHU216PEETBRO,2013-03-16 05:42:00,
2013-03-16 00:47:00,59.1,0.0,0.00,WSW,251,4.0,5.8,0,0.00,,,0.00,WUHU216PEETBRO,2013-03-16 05:47:00,
2013-03-16 00:52:00,58.2,0.0,0.00,West,279,3.5,7.6,0,0.00,,,0.00,WUHU216PEETBRO,2013-03-16 05:52:00,
2013-03-16 00:57:00,58.8,0.0,0.00,West,271,5.1,7.6,0,0.00,,,0.00,WUHU216PEETBRO,2013-03-16 05:57:00,
2013-03-16 01:02:00,58.2,0.0,0.00,WSW,256,2.5,8.0,0,0.00,,,0.00,WUHU216PEETBRO,2013-03-16 06:02:00,
2013-03-16 01:07:00,58.0,0.0,0.00,West,259,6.4,8.0,0,0.00,,,0.00,WUHU216PEETBRO,2013-03-16 06:07:00,
2013-03-16 01:12:00,58.2,0.0,0.00,WSW,256,1.7,7.5,0,0.00,,,0.00,WUHU216PEETBRO,2013-03-16 06:12:00,
2013-03-16 01:17:00,58.2,0.0,0.00,WSW,252,4.3,7.5,0,0.00,,,0.00,WUHU216PEETBRO,2013-03-16 06:17:00,
2013-03-16 01:22:00,58.0,0.0,0.00,SW,231,3.0,7.2,0,0.00,,,0.00,WUHU216PEETBRO,2013-03-16 06:22:00,
2013-03-16 01:27:00,58.1,0.0,0.00,West,273,3.9,7.3,0,0.00,,,0.00,WUHU216PEETBRO,2013-03-16 06:27:00,
2013-03-16 01:32:00,58.0,0.0,0.00,SW,235,3.8,8.0,0,0.00,,,0.00,WUHU216PEETBRO,2013-03-16 06:32:00,
2013-03-16 01:37:00,58.0,0.0,0.00,West,272,2.2,8.0,0,0.00,,,0.00,WUHU216PEETBRO,2013-03-16 06:37:00,
2013-03-16 01:42:00,58.2,0.0,0.00,West,261,3.3,7.8,0,0.00,,,0.00,WUHU216PEETBRO,2013-03-16 06:42:00,
2013-03-16 01:47:00,57.2,0.0,0.00,West,273,3.0,6.1,0,0.00,,,0.00,WUHU216PEETBRO,2013-03-16 06:47:00,
2013-03-16 01:52:00,57.7,0.0,0.00,WSW,249,5.1,6.1,0,0.00,,,0.00,WUHU216PEETBRO,2013-03-16 06:52:00,
2013-03-16 01:57:00,57.4,0.0,0.00,WSW,242,4.5,6.0,0,0.00,,,0.00,WUHU216PEETBRO,2013-03-16 06:57:00,
2013-03-16 02:02:00,58.0,0.0,0.00,WNW,287,1.9,5.9,0,0.00,,,0.00,WUHU216PEETBRO,2013-03-16 07:02:00,
2013-03-16 02:07:00,58.1,0.0,0.00,WNW,289,2.7,6.6,0,0.00,,,0.00,WUHU216PEETBRO,2013-03-16 07:07:00,
2013-03-16 02:12:00,57.4,0.0,0.00,WNW,283,2.4,6.6,0,0.00,,,0.00,WUHU216PEETBRO,2013-03-16 07:12:00,
2013-03-16 02:17:00,58.0,0.0,0.00,West,278,2.5,6.0,0,0.00,,,0.00,WUHU216PEETBRO,2013-03-16 07:17:00,
2013-03-16 02:22:00,57.2,0.0,0.00,West,263,4.5,6.0,0,0.00,,,0.00,WUHU216PEETBRO,2013-03-16 07:22:00,
2013-03-16 02:27:00,57.2,0.0,0.00,WSW,241,3.2,5.8,0,0.00,,,0.00,WUHU216PEETBRO,2013-03-16 07:27:00,
2013-03-16 02:32:00,56.8,0.0,0.00,WSW,242,2.7,6.4,0,0.00,,,0.00,WUHU216PEETBRO,2013-03-16 07:32:00,
2013-03-16 02:37:00,56.9,0.0,0.00,SW,228,5.8,7.3,0,0.00,,,0.00,WUHU216PEETBRO,2013-03-16 07:37:00,
2013-03-16 02:42:00,56.4,0.0,0.00,West,266,3.1,7.3,0,0.00,,,0.00,WUHU216PEETBRO,2013-03-16 07:42:00,
2013-03-16 02:47:00,56.4,0.0,0.00,West,273,6.4,7.4,0,0.00,,,0.00,WUHU216PEETBRO,2013-03-16 07:47:00,
2013-03-16 02:52:00,56.6,0.0,0.00,WSW,255,3.0,7.4,0,0.00,,,0.00,WUHU216PEETBRO,2013-03-16 07:52:00,
2013-03-16 02:57:00,56.5,0.0,0.00,West,269,2.4,7.0,0,0.00,,,0.00,WUHU216PEETBRO,2013-03-16 07:57:00,
2013-03-16 03:02:00,56.6,0.0,0.00,West,279,2.9,6.4,0,0.00,,,0.00,WUHU216PEETBRO,2013-03-16 08:02:00,
2013-03-16 03:07:00,56.1,0.0,0.00,West,271,1.7,7.0,0,0.00,,,0.00,WUHU216PEETBRO,2013-03-16 08:07:00,
2013-03-16 03:12:00,56.4,0.0,0.00,WSW,242,1.6,7.0,0,0.00,,,0.00,WUHU216PEETBRO,2013-03-16 08:12:00,
2013-03-16 03:17:00,55.9,0.0,0.00,West,265,0.0,4.9,0,0.00,,,0.00,WUHU216PEETBRO,2013-03-16 08:17:00,
2013-03-16 03:22:00,56.4,0.0,0.00,West,278,0.0,5.2,0,0.00,,,0.00,WUHU216PEETBRO,2013-03-16 08:22:00,
2013-03-16 03:27:00,56.2,0.0,0.00,WSW,238,3.6,5.2,0,0.00,,,0.00,WUHU216PEETBRO,2013-03-16 08:27:00,
2013-03-16 03:32:00,56.1,0.0,0.00,West,280,0.7,4.4,0,0.00,,,0.00,WUHU216PEETBRO,2013-03-16 08:32:00,
2013-03-16 03:37:00,56.4,0.0,0.00,WNW,299,0.0,4.4,0,0.00,,,0.00,WUHU216PEETBRO,2013-03-16 08:37:00,
2013-03-16 03:42:00,56.2,0.0,0.00,WNW,299,0.0,3.2,0,0.00,,,0.00,WUHU216PEETBRO,2013-03-16 08:42:00,
2013-03-16 03:47:00,55.5,0.0,0.00,WNW,299,0.0,0.0,0,0.00,,,0.00,WUHU216PEETBRO,2013-03-16 08:47:00,
2013-03-16 03:52:00,56.2,0.0,0.00,WNW,299,0.0,0.0,0,0.00,,,0.00,WUHU216PEETBRO,2013-03-16 08:52:00,
2013-03-16 03:57:00,55.4,0.0,0.00,WNW,299,0.0,0.0,0,0.00,,,0.00,WUHU216PEETBRO,2013-03-16 08:57:00,
2013-03-16 04:02:00,55.1,0.0,0.00,SSW,203,0.0,2.7,0,0.00,,,0.00,WUHU216PEETBRO,2013-03-16 09:02:00,
2013-03-16 04:07:00,54.9,0.0,0.00,SSW,203,0.0,2.7,0,0.00,,,0.00,WUHU216PEETBRO,2013-03-16 09:07:00,
2013-03-16 04:12:00,54.6,0.0,0.00,SSE,156,0.0,3.4,0,0.00,,,0.00,WUHU216PEETBRO,2013-03-16 09:12:00,
2013-03-16 04:17:00,54.3,0.0,0.00,SSE,156,0.0,3.4,0,0.00,,,0.00,WUHU216PEETBRO,2013-03-16 09:17:00,
2013-03-16 04:22:00,55.1,0.0,0.00,South,179,2.9,3.7,0,0.00,,,0.00,WUHU216PEETBRO,2013-03-16 09:22:00,
2013-03-16 04:27:00,55.4,0.0,0.00,ESE,122,0.0,3.7,0,0.00,,,0.00,WUHU216PEETBRO,2013-03-16 09:27:00,
2013-03-16 04:32:00,55.1,0.0,0.00,South,183,0.0,3.7,0,0.00,,,0.00,WUHU216PEETBRO,2013-03-16 09:32:00,
2013-03-16 04:37:00,54.3,0.0,0.00,South,183,0.0,1.8,0,0.00,,,0.00,WUHU216PEETBRO,2013-03-16 09:37:00,
2013-03-16 04:42:00,54.6,0.0,0.00,South,183,0.0,0.0,0,0.00,,,0.00,WUHU216PEETBRO,2013-03-16 09:42:00,
2013-03-16 04:47:00,54.6,0.0,0.00,South,183,0.0,0.0,0,0.00,,,0.00,WUHU216PEETBRO,2013-03-16 09:47:00,
2013-03-16 04:52:00,54.3,0.0,0.00,South,183,0.0,0.0,0,0.00,,,0.00,WUHU216PEETBRO,2013-03-16 09:52:00,
2013-03-16 04:57:00,54.6,0.0,0.00,South,183,0.0,0.0,0,0.00,,,0.00,WUHU216PEETBRO,2013-03-16 09:57:00,
2013-03-16 05:02:00,54.6,0.0,0.00,South,183,0.0,0.0,0,0.00,,,0.00,WUHU216PEETBRO,2013-03-16 10:02:00,
2013-03-16 05:07:00,54.9,0.0,0.00,South,183,0.0,0.0,0,0.00,,,0.00,WUHU216PEETBRO,2013-03-16 10:07:00,
2013-03-16 05:12:00,54.3,0.0,0.00,South,183,0.0,0.0,0,0.00,,,0.00,WUHU216PEETBRO,2013-03-16 10:12:00,
2013-03-16 05:17:00,54.3,0.0,0.00,SSW,213,2.7,4.0,0,0.00,,,0.00,WUHU216PEETBRO,2013-03-16 10:17:00,
2013-03-16 05:22:00,53.8,0.0,0.00,SW,231,1.6,4.0,0,0.00,,,0.00,WUHU216PEETBRO,2013-03-16 10:22:00,
2013-03-16 05:27:00,53.3,0.0,0.00,South,179,3.0,3.6,0,0.00,,,0.00,WUHU216PEETBRO,2013-03-16 10:27:00,
2013-03-16 05:32:00,53.5,0.0,0.00,SW,221,2.7,4.2,0,0.00,,,0.00,WUHU216PEETBRO,2013-03-16 10:32:00,
2013-03-16 05:37:00,53.8,0.0,0.00,SW,230,2.6,4.8,0,0.00,,,0.00,WUHU216PEETBRO,2013-03-16 10:37:00,
2013-03-16 05:42:00,54.1,0.0,0.00,SW,220,1.9,4.8,0,0.00,,,0.00,WUHU216PEETBRO,2013-03-16 10:42:00,
2013-03-16 05:47:00,53.5,0.0,0.00,West,263,3.7,4.2,0,0.00,,,0.00,WUHU216PEETBRO,2013-03-16 10:47:00,
2013-03-16 05:52:00,53.5,0.0,0.00,South,187,2.4,4.7,0,0.00,,,0.00,WUHU216PEETBRO,2013-03-16 10:52:00,
2013-03-16 05:57:00,53.5,0.0,0.00,SSW,213,1.4,4.7,0,0.00,,,0.00,WUHU216PEETBRO,2013-03-16 10:57:00,
2013-03-16 06:02:00,53.5,0.0,0.00,WSW,248,0.0,4.9,0,0.00,,,0.00,WUHU216PEETBRO,2013-03-16 11:02:00,
2013-03-16 06:07:00,53.5,0.0,0.00,WSW,248,0.0,4.9,0,0.00,,,0.00,WUHU216PEETBRO,2013-03-16 11:07:00,
2013-03-16 06:12:00,53.5,0.0,0.00,WSW,248,0.0,0.0,0,0.00,,,0.00,WUHU216PEETBRO,2013-03-16 11:12:00,
2013-03-16 06:17:00,53.1,0.0,0.00,WSW,248,0.0,0.0,0,0.00,,,0.00,WUHU216PEETBRO,2013-03-16 11:17:00,
2013-03-16 06:22:00,53.5,0.0,0.00,SW,228,2.1,3.2,0,0.00,,,0.00,WUHU216PEETBRO,2013-03-16 11:22:00,
2013-03-16 06:27:00,53.5,0.0,0.00,South,180,0.0,3.6,0,0.00,,,0.00,WUHU216PEETBRO,2013-03-16 11:27:00,
2013-03-16 06:32:00,53.5,0.0,0.00,SW,232,3.4,5.6,0,0.00,,,0.00,WUHU216PEETBRO,2013-03-16 11:32:00,
2013-03-16 06:37:00,53.5,0.0,0.00,South,170,4.0,5.6,0,0.00,,,0.00,WUHU216PEETBRO,2013-03-16 11:37:00,
2013-03-16 06:42:00,54.1,0.0,0.00,South,183,1.1,5.2,0,0.00,,,0.00,WUHU216PEETBRO,2013-03-16 11:42:00,
2013-03-16 06:47:00,53.5,0.0,0.00,WSW,251,0.0,4.6,0,0.00,,,0.00,WUHU216PEETBRO,2013-03-16 11:47:00,
2013-03-16 06:52:00,54.6,0.0,0.00,SSW,207,1.3,5.1,0,0.00,,,0.00,WUHU216PEETBRO,2013-03-16 11:52:00,
2013-03-16 06:57:00,54.6,0.0,0.00,WSW,249,3.8,5.1,0,0.00,,,0.00,WUHU216PEETBRO,2013-03-16 11:57:00,
2013-03-16 07:02:00,54.3,0.0,0.00,West,280,0.0,4.8,0,0.00,,,0.00,WUHU216PEETBRO,2013-03-16 12:02:00,
2013-03-16 07:07:00,54.3,0.0,0.00,SSW,204,0.0,4.4,0,0.00,,,0.00,WUHU216PEETBRO,2013-03-16 12:07:00,
2013-03-16 07:12:00,54.3,0.0,0.00,WSW,241,1.3,5.0,0,0.00,,,0.00,WUHU216PEETBRO,2013-03-16 12:12:00,
2013-03-16 07:17:00,54.9,0.0,0.00,WSW,241,0.0,5.0,0,0.00,,,0.00,WUHU216PEETBRO,2013-03-16 12:17:00,
2013-03-16 07:22:00,54.6,0.0,0.00,WSW,241,0.0,1.3,0,0.00,,,0.00,WUHU216PEETBRO,2013-03-16 12:22:00,
2013-03-16 07:27:00,54.6,0.0,0.00,WSW,241,0.0,0.0,0,0.00,,,0.00,WUHU216PEETBRO,2013-03-16 12:27:00,
2013-03-16 07:32:00,54.3,0.0,0.00,WSW,241,0.0,0.0,0,0.00,,,0.00,WUHU216PEETBRO,2013-03-16 12:32:00,
2013-03-16 07:37:00,56.1,0.0,0.00,WSW,241,0.0,0.0,0,0.00,,,0.00,WUHU216PEETBRO,2013-03-16 12:37:00,
2013-03-16 07:42:00,58.2,0.0,0.00,WSW,241,0.0,0.0,0,0.00,,,0.00,WUHU216PEETBRO,2013-03-16 12:42:00,
2013-03-16 07:47:00,58.5,0.0,0.00,WSW,241,0.0,0.0,0,0.00,,,0.00,WUHU216PEETBRO,2013-03-16 12:47:00,
2013-03-16 07:52:00,59.3,0.0,0.00,WSW,241,0.0,0.0,0,0.00,,,0.00,WUHU216PEETBRO,2013-03-16 12:52:00,
2013-03-16 07:57:00,59.4,0.0,0.00,WSW,244,2.5,3.5,0,0.00,,,0.00,WUHU216PEETBRO,2013-03-16 12:57:00,
2013-03-16 08:02:00,60.5,0.0,0.00,WSW,239,2.7,4.8,0,0.00,,,0.00,WUHU216PEETBRO,2013-03-16 13:02:00,
2013-03-16 08:07:00,61.4,0.0,0.00,WSW,237,1.9,4.8,0,0.00,,,0.00,WUHU216PEETBRO,2013-03-16 13:07:00,
2013-03-16 08:12:00,62.2,0.0,0.00,WSW,251,3.7,4.8,0,0.00,,,0.00,WUHU216PEETBRO,2013-03-16 13:12:00,
2013-03-16 08:17:00,62.0,0.0,0.00,WSW,254,2.7,6.4,0,0.00,,,0.00,WUHU216PEETBRO,2013-03-16 13:17:00,
2013-03-16 08:22:00,63.3,0.0,0.00,SW,231,3.4,6.4,0,0.00,,,0.00,WUHU216PEETBRO,2013-03-16 13:22:00,
2013-03-16 08:27:00,65.9,0.0,0.00,WSW,239,0.7,6.1,0,0.00,,,0.00,WUHU216PEETBRO,2013-03-16 13:27:00,
2013-03-16 08:32:00,65.3,0.0,0.00,West,276,3.0,5.6,0,0.00,,,0.00,WUHU216PEETBRO,2013-03-16 13:32:00,
2013-03-16 08:37:00,66.4,0.0,0.00,SW,223,2.1,5.6,0,0.00,,,0.00,WUHU216PEETBRO,2013-03-16 13:37:00,
2013-03-16 08:42:00,64.7,0.0,0.00,SW,235,5.3,9.7,0,0.00,,,0.00,WUHU216PEETBRO,2013-03-16 13:42:00,
2013-03-16 08:47:00,68.2,0.0,0.00,West,280,1.2,9.7,0,0.00,,,0.00,WUHU216PEETBRO,2013-03-16 13:47:00,
2013-03-16 08:52:00,67.3,0.0,0.00,West,280,2.9,7.9,0,0.00,,,0.00,WUHU216PEETBRO,2013-03-16 13:52:00,
2013-03-16 08:57:00,68.4,0.0,0.00,West,273,2.5,7.9,0,0.00,,,0.00,WUHU216PEETBRO,2013-03-16 13:57:00,
2013-03-16 09:02:00,63.3,0.0,0.00,WSW,237,5.3,10.5,0,0.00,,,0.00,WUHU216PEETBRO,2013-03-16 14:02:00,
2013-03-16 09:07:00,65.3,0.0,0.00,West,269,1.4,10.5,0,0.00,,,0.00,WUHU216PEETBRO,2013-03-16 14:07:00,
2013-03-16 09:12:00,64.8,0.0,0.00,West,271,4.4,9.8,0,0.00,,,0.00,WUHU216PEETBRO,2013-03-16 14:12:00,
2013-03-16 09:17:00,68.1,0.0,0.00,WNW,287,5.8,9.8,0,0.00,,,0.00,WUHU216PEETBRO,2013-03-16 14:17:00,
2013-03-16 09:22:00,68.6,0.0,0.00,NW,323,4.7,8.9,0,0.00,,,0.00,WUHU216PEETBRO,2013-03-16 14:22:00,
2013-03-16 09:27:00,69.0,0.0,0.00,SW,214,6.0,11.2,0,0.00,,,0.00,WUHU216PEETBRO,2013-03-16 14:27:00,
2013-03-16 09:32:00,72.3,0.0,0.00,SW,217,9.1,11.2,0,0.00,,,0.00,WUHU216PEETBRO,2013-03-16 14:32:00,
2013-03-16 09:37:00,68.6,0.0,0.00,West,259,6.0,10.3,0,0.00,,,0.00,WUHU216PEETBRO,2013-03-16 14:37:00,
2013-03-16 09:42:00,69.8,0.0,0.00,WSW,244,8.1,10.3,0,0.00,,,0.00,WUHU216PEETBRO,2013-03-16 14:42:00,
2013-03-16 09:47:00,71.4,0.0,0.00,WNW,302,3.6,10.1,0,0.00,,,0.00,WUHU216PEETBRO,2013-03-16 14:47:00,
2013-03-16 09:52:00,72.3,0.0,0.00,WNW,293,1.3,9.7,0,0.00,,,0.00,WUHU216PEETBRO,2013-03-16 14:52:00,
2013-03-16 09:57:00,72.3,0.0,0.00,SW,234,3.5,9.7,0,0.00,,,0.00,WUHU216PEETBRO,2013-03-16 14:57:00,
2013-03-16 10:02:00,72.3,0.0,0.00,SW,221,9.5,11.6,0,0.00,,,0.00,WUHU216PEETBRO,2013-03-16 15:02:00,
2013-03-16 10:07:00,74.6,0.0,0.00,SW,228,4.2,11.6,0,0.00,,,0.00,WUHU216PEETBRO,2013-03-16 15:07:00,
2013-03-16 10:12:00,75.9,0.0,0.00,WNW,286,6.0,9.4,0,0.00,,,0.00,WUHU216PEETBRO,2013-03-16 15:12:00,
2013-03-16 10:17:00,73.9,0.0,0.00,WSW,254,2.1,13.4,0,0.00,,,0.00,WUHU216PEETBRO,2013-03-16 15:17:00,
2013-03-16 10:22:00,73.9,0.0,0.00,WNW,282,4.9,13.4,0,0.00,,,0.00,WUHU216PEETBRO,2013-03-16 15:22:00,
2013-03-16 10:27:00,76.5,0.0,0.00,WSW,251,6.0,12.6,0,0.00,,,0.00,WUHU216PEETBRO,2013-03-16 15:27:00,
2013-03-16 10:32:00,77.4,0.0,0.00,WSW,237,1.4,11.4,0,0.00,,,0.00,WUHU216PEETBRO,2013-03-16 15:32:00,
2013-03-16 10:37:00,73.2,0.0,0.00,WSW,249,7.1,11.2,0,0.00,,,0.00,WUHU216PEETBRO,2013-03-16 15:37:00,
2013-03-16 10:42:00,76.5,0.0,0.00,WSW,241,4.0,12.5,0,0.00,,,0.00,WUHU216PEETBRO,2013-03-16 15:42:00,
2013-03-16 10:47:00,73.6,0.0,0.00,WSW,244,2.7,12.5,0,0.00,,,0.00,WUHU216PEETBRO,2013-03-16 15:47:00,
2013-03-16 10:52:00,73.9,0.0,0.00,WNW,286,3.9,12.4,0,0.00,,,0.00,WUHU216PEETBRO,2013-03-16 15:52:00,
2013-03-16 10:57:00,77.9,0.0,0.00,West,271,4.7,12.4,0,0.00,,,0.00,WUHU216PEETBRO,2013-03-16 15:57:00,
2013-03-16 11:02:00,73.2,0.0,0.00,West,259,10.2,13.9,0,0.00,,,0.00,WUHU216PEETBRO,2013-03-16 16:02:00,
2013-03-16 11:07:00,73.9,0.0,0.00,WNW,286,4.6,13.9,0,0.00,,,0.00,WUHU216PEETBRO,2013-03-16 16:07:00,
2013-03-16 11:12:00,73.5,0.0,0.00,WNW,303,5.0,11.6,0,0.00,,,0.00,WUHU216PEETBRO,2013-03-16 16:12:00,
2013-03-16 11:17:00,72.3,0.0,0.00,West,273,3.5,13.4,0,0.00,,,0.00,WUHU216PEETBRO,2013-03-16 16:17:00,
2013-03-16 11:22:00,72.6,0.0,0.00,West,279,3.8,13.4,0,0.00,,,0.00,WUHU216PEETBRO,2013-03-16 16:22:00,
2013-03-16 11:27:00,73.8,0.0,0.00,West,271,5.1,12.5,0,0.00,,,0.00,WUHU216PEETBRO,2013-03-16 16:27:00,
2013-03-16 11:32:00,74.2,0.0,0.00,WNW,296,6.5,12.5,0,0.00,,,0.00,WUHU216PEETBRO,2013-03-16 16:32:00,
2013-03-16 11:37:00,79.4,0.0,0.00,WNW,282,6.5,15.6,0,0.00,,,0.00,WUHU216PEETBRO,2013-03-16 16:37:00,
2013-03-16 11:42:00,81.7,0.0,0.00,NW,321,7.1,15.6,0,0.00,,,0.00,WUHU216PEETBRO,2013-03-16 16:42:00,
2013-03-16 11:47:00,77.4,0.0,0.00,West,271,11.1,15.2,0,0.00,,,0.00,WUHU216PEETBRO,2013-03-16 16:47:00,
2013-03-16 11:52:00,79.2,0.0,0.00,SSW,213,8.0,15.2,0,0.00,,,0.00,WUHU216PEETBRO,2013-03-16 16:52:00,
2013-03-16 11:57:00,82.1,0.0,0.00,WSW,237,6.6,15.0,0,0.00,,,0.00,WUHU216PEETBRO,2013-03-16 16:57:00,
2013-03-16 12:02:00,81.5,0.0,0.00,WSW,258,6.4,14.0,0,0.00,,,0.00,WUHU216PEETBRO,2013-03-16 17:02:00,
2013-03-16 12:07:00,80.2,0.0,0.00,SW,223,8.6,14.4,0,0.00,,,0.00,WUHU216PEETBRO,2013-03-16 17:07:00,
2013-03-16 12:12:00,81.5,0.0,0.00,WNW,282,7.0,14.4,0,0.00,,,0.00,WUHU216PEETBRO,2013-03-16 17:12:00,
2013-03-16 12:17:00,81.1,0.0,0.00,WSW,254,7.6,14.0,0,0.00,,,0.00,WUHU216PEETBRO,2013-03-16 17:17:00,
2013-03-16 12:22:00,81.1,0.0,0.00,South,189,11.2,16.9,0,0.00,,,0.00,WUHU216PEETBRO,2013-03-16 17:22:00,
2013-03-16 12:27:00,79.5,0.0,0.00,West,279,6.9,17.5,0,0.00,,,0.00,WUHU216PEETBRO,2013-03-16 17:27:00,
2013-03-16 12:32:00,81.1,0.0,0.00,SSW,203,7.8,17.5,0,0.00,,,0.00,WUHU216PEETBRO,2013-03-16 17:32:00,
2013-03-16 12:37:00,83.5,0.0,0.00,WSW,237,5.7,15.9,0,0.00,,,0.00,WUHU216PEETBRO,2013-03-16 17:37:00,
2013-03-16 12:42:00,83.5,0.0,0.00,NW,316,5.2,11.7,0,0.00,,,0.00,WUHU216PEETBRO,2013-03-16 17:42:00,
2013-03-16 12:47:00,81.7,0.0,0.00,SSW,208,8.0,11.7,0,0.00,,,0.00,WUHU216PEETBRO,2013-03-16 17:47:00,
2013-03-16 12:52:00,81.7,0.0,0.00,SW,227,7.0,15.4,0,0.00,,,0.00,WUHU216PEETBRO,2013-03-16 17:52:00,
2013-03-16 12:57:00,80.2,0.0,0.00,WNW,302,6.3,15.4,0,0.00,,,0.00,WUHU216PEETBRO,2013-03-16 17:57:00,
2013-03-16 13:02:00,81.1,0.0,0.00,WSW,249,4.2,11.2,0,0.00,,,0.00,WUHU216PEETBRO,2013-03-16 18:02:00,
2013-03-16 13:07:00,81.7,0.0,0.00,WSW,242,6.3,11.4,0,0.00,,,0.00,WUHU216PEETBRO,2013-03-16 18:07:00,
2013-03-16 13:12:00,80.5,0.0,0.00,SSW,210,9.4,14.0,0,0.00,,,0.00,WUHU216PEETBRO,2013-03-16 18:12:00,
2013-03-16 13:17:00,81.5,0.0,0.00,East,100,8.9,14.0,0,0.00,,,0.00,WUHU216PEETBRO,2013-03-16 18:17:00,
2013-03-16 13:22:00,81.5,0.0,0.00,WNW,299,4.2,12.4,0,0.00,,,0.00,WUHU216PEETBRO,2013-03-16 18:22:00,
2013-03-16 13:27:00,85.8,0.0,0.00,WSW,237,3.8,11.8,0,0.00,,,0.00,WUHU216PEETBRO,2013-03-16 18:27:00,
2013-03-16 13:32:00,83.5,0.0,0.00,South,179,4.7,9.9,0,0.00,,,0.00,WUHU216PEETBRO,2013-03-16 18:32:00,
2013-03-16 13:37:00,81.7,0.0,0.00,ESE,108,8.7,14.4,0,0.00,,,0.00,WUHU216PEETBRO,2013-03-16 18:37:00,
2013-03-16 13:42:00,81.7,0.0,0.00,WSW,256,3.8,14.4,0,0.00,,,0.00,WUHU216PEETBRO,2013-03-16 18:42:00,
2013-03-16 13:47:00,80.5,0.0,0.00,SW,214,14.7,16.2,0,0.00,,,0.00,WUHU216PEETBRO,2013-03-16 18:47:00,
2013-03-16 13:52:00,84.9,0.0,0.00,WSW,247,4.4,16.2,0,0.00,,,0.00,WUHU216PEETBRO,2013-03-16 18:52:00,
2013-03-16 13:57:00,84.6,0.0,0.00,NW,317,4.9,15.2,0,0.00,,,0.00,WUHU216PEETBRO,2013-03-16 18:57:00,
2013-03-16 14:02:00,83.2,0.0,0.00,SW,235,6.3,15.8,0,0.00,,,0.00,WUHU216PEETBRO,2013-03-16 19:02:00,
2013-03-16 14:07:00,85.5,0.0,0.00,WNW,302,5.8,15.8,0,0.00,,,0.00,WUHU216PEETBRO,2013-03-16 19:07:00,
2013-03-16 14:12:00,83.9,0.0,0.00,West,268,7.0,12.0,0,0.00,,,0.00,WUHU216PEETBRO,2013-03-16 19:12:00,
2013-03-16 14:17:00,82.1,0.0,0.00,WSW,252,9.3,11.5,0,0.00,,,0.00,WUHU216PEETBRO,2013-03-16 19:17:00,
2013-03-16 14:22:00,80.5,0.0,0.00,SW,234,5.5,13.2,0,0.00,,,0.00,WUHU216PEETBRO,2013-03-16 19:22:00,
2013-03-16 14:27:00,79.5,0.0,0.00,SSW,213,8.4,13.4,0,0.00,,,0.00,WUHU216PEETBRO,2013-03-16 19:27:00,
2013-03-16 14:32:00,80.5,0.0,0.00,SSE,148,12.7,16.5,0,0.00,,,0.00,WUHU216PEETBRO,2013-03-16 19:32:00,
2013-03-16 14:36:00,81.5,0.0,0.00,WSW,238,4.2,16.5,0,0.00,,,0.00,WUHU216PEETBRO,2013-03-16 19:36:00,
2013-03-16 14:41:00,80.5,0.0,0.00,WSW,255,5.5,16.8,0,0.00,,,0.00,WUHU216PEETBRO,2013-03-16 19:41:00,
2013-03-16 14:47:00,84.5,0.0,0.00,SW,214,6.8,16.8,0,0.00,,,0.00,WUHU216PEETBRO,2013-03-16 19:47:00,
2013-03-16 14:51:00,84.6,0.0,0.00,West,263,5.7,14.0,0,0.00,,,0.00,WUHU216PEETBRO,2013-03-16 19:51:00,
2013-03-16 14:57:00,82.8,0.0,0.00,SW,234,7.6,15.0,0,0.00,,,0.00,WUHU216PEETBRO,2013-03-16 19:57:00,
2013-03-16 15:02:00,84.5,0.0,0.00,West,268,7.4,15.0,0,0.00,,,0.00,WUHU216PEETBRO,2013-03-16 20:02:00,
2013-03-16 15:07:00,83.9,0.0,0.00,SW,235,14.2,15.5,0,0.00,,,0.00,WUHU216PEETBRO,2013-03-16 20:07:00,
2013-03-16 15:11:00,85.5,0.0,0.00,WSW,255,3.4,15.5,0,0.00,,,0.00,WUHU216PEETBRO,2013-03-16 20:11:00,
2013-03-16 15:16:00,82.8,0.0,0.00,SSE,153,9.3,14.8,0,0.00,,,0.00,WUHU216PEETBRO,2013-03-16 20:16:00,
2013-03-16 15:21:00,84.7,0.0,0.00,SSE,166,8.3,14.8,0,0.00,,,0.00,WUHU216PEETBRO,2013-03-16 20:21:00,
2013-03-16 15:26:00,83.5,0.0,0.00,WSW,239,5.8,16.5,0,0.00,,,0.00,WUHU216PEETBRO,2013-03-16 20:26:00,
2013-03-16 15:31:00,83.9,0.0,0.00,WSW,255,9.2,16.5,0,0.00,,,0.00,WUHU216PEETBRO,2013-03-16 20:31:00,
2013-03-16 15:36:00,83.5,0.0,0.00,WSW,258,8.6,16.0,0,0.00,,,0.00,WUHU216PEETBRO,2013-03-16 20:36:00,
2013-03-16 15:41:00,83.5,0.0,0.00,West,271,6.8,14.8,0,0.00,,,0.00,WUHU216PEETBRO,2013-03-16 20:41:00,
2013-03-16 15:46:00,84.6,0.0,0.00,SW,217,8.9,15.0,0,0.00,,,0.00,WUHU216PEETBRO,2013-03-16 20:46:00,
2013-03-16 15:51:00,84.5,0.0,0.00,WSW,256,3.4,15.0,0,0.00,,,0.00,WUHU216PEETBRO,2013-03-16 20:51:00,
2013-03-16 15:56:00,86.9,0.0,0.00,SW,225,5.5,13.1,0,0.00,,,0.00,WUHU216PEETBRO,2013-03-16 20:56:00,
2013-03-16 16:01:00,83.5,0.0,0.00,SW,230,4.4,11.9,0,0.00,,,0.00,WUHU216PEETBRO,2013-03-16 21:01:00,
2013-03-16 16:06:00,86.6,0.0,0.00,SSW,201,3.9,11.9,0,0.00,,,0.00,WUHU216PEETBRO,2013-03-16 21:06:00,
2013-03-16 16:11:00,84.4,0.0,0.00,WSW,242,7.0,11.5,0,0.00,,,0.00,WUHU216PEETBRO,2013-03-16 21:11:00,
2013-03-16 16:16:00,84.8,0.0,0.00,SSW,197,6.5,12.1,0,0.00,,,0.00,WUHU216PEETBRO,2013-03-16 21:16:00,
2013-03-16 16:21:00,83.5,0.0,0.00,West,259,4.8,18.8,0,0.00,,,0.00,WUHU216PEETBRO,2013-03-16 21:21:00,
2013-03-16 16:26:00,83.5,0.0,0.00,SW,214,8.7,18.8,0,0.00,,,0.00,WUHU216PEETBRO,2013-03-16 21:26:00,
2013-03-16 16:31:00,83.9,0.0,0.00,SSW,211,5.8,14.7,0,0.00,,,0.00,WUHU216PEETBRO,2013-03-16 21:31:00,
2013-03-16 16:36:00,85.5,0.0,0.00,WNW,295,4.1,15.0,0,0.00,,,0.00,WUHU216PEETBRO,2013-03-16 21:36:00,
2013-03-16 16:41:00,85.1,0.0,0.00,WSW,238,10.3,15.0,0,0.00,,,0.00,WUHU216PEETBRO,2013-03-16 21:41:00,
2013-03-16 16:46:00,84.6,0.0,0.00,SSE,149,5.7,11.3,0,0.00,,,0.00,WUHU216PEETBRO,2013-03-16 21:46:00,
2013-03-16 16:51:00,82.4,0.0,0.00,SE,138,11.4,18.3,0,0.00,,,0.00,WUHU216PEETBRO,2013-03-16 21:51:00,
2013-03-16 16:56:00,83.5,0.0,0.00,SE,128,6.4,18.3,0,0.00,,,0.00,WUHU216PEETBRO,2013-03-16 21:56:00,
2013-03-16 17:01:00,83.2,0.0,0.00,SSE,159,8.0,14.2,0,0.00,,,0.00,WUHU216PEETBRO,2013-03-16 22:01:00,
2013-03-16 17:06:00,82.4,0.0,0.00,SW,235,5.2,13.6,0,0.00,,,0.00,WUHU216PEETBRO,2013-03-16 22:06:00,
2013-03-16 17:11:00,84.3,0.0,0.00,SW,228,5.4,13.6,0,0.00,,,0.00,WUHU216PEETBRO,2013-03-16 22:11:00,
2013-03-16 17:16:00,82.8,0.0,0.00,West,273,4.4,13.6,0,0.00,,,0.00,WUHU216PEETBRO,2013-03-16 22:16:00,
2013-03-16 17:21:00,81.5,0.0,0.00,NW,304,5.3,14.3,0,0.00,,,0.00,WUHU216PEETBRO,2013-03-16 22:21:00,
2013-03-16 17:26:00,80.2,0.0,0.00,SSE,162,11.1,14.4,0,0.00,,,0.00,WUHU216PEETBRO,2013-03-16 22:26:00,
2013-03-16 17:31:00,81.5,0.0,0.00,WSW,244,4.9,14.7,0,0.00,,,0.00,WUHU216PEETBRO,2013-03-16 22:31:00,
2013-03-16 17:36:00,82.1,0.0,0.00,WSW,248,3.8,14.7,0,0.00,,,0.00,WUHU216PEETBRO,2013-03-16 22:36:00,
2013-03-16 17:41:00,81.5,0.0,0.00,SSE,166,4.8,10.5,0,0.00,,,0.00,WUHU216PEETBRO,2013-03-16 22:41:00,
2013-03-16 17:46:00,80.5,0.0,0.00,South,187,11.6,13.0,0,0.00,,,0.00,WUHU216PEETBRO,2013-03-16 22:46:00,
2013-03-16 17:51:00,79.7,0.0,0.00,South,179,6.1,15.5,0,0.00,,,0.00,WUHU216PEETBRO,2013-03-16 22:51:00,
2013-03-16 17:56:00,78.8,0.0,0.00,SE,145,5.0,15.5,0,0.00,,,0.00,WUHU216PEETBRO,2013-03-16 22:56:00,
2013-03-16 18:01:00,79.2,0.0,0.00,South,191,5.3,12.6,0,0.00,,,0.00,WUHU216PEETBRO,2013-03-16 23:01:00,
2013-03-16 18:06:00,78.1,0.0,0.00,WSW,249,4.3,12.1,0,0.00,,,0.00,WUHU216PEETBRO,2013-03-16 23:06:00,
2013-03-16 18:11:00,78.9,0.0,0.00,West,279,3.5,13.7,0,0.00,,,0.00,WUHU216PEETBRO,2013-03-16 23:11:00,
2013-03-16 18:16:00,78.1,0.0,0.00,WSW,241,10.1,13.7,0,0.00,,,0.00,WUHU216PEETBRO,2013-03-16 23:16:00,
2013-03-16 18:21:00,76.5,0.0,0.00,WSW,239,7.1,12.7,0,0.00,,,0.00,WUHU216PEETBRO,2013-03-16 23:21:00,
2013-03-16 18:26:00,76.2,0.0,0.00,South,169,8.2,13.2,0,0.00,,,0.00,WUHU216PEETBRO,2013-03-16 23:26:00,
2013-03-16 18:31:00,74.9,0.0,0.00,WSW,251,7.1,13.5,0,0.00,,,0.00,WUHU216PEETBRO,2013-03-16 23:31:00,
2013-03-16 18:36:00,73.9,0.0,0.00,SW,227,7.2,13.5,0,0.00,,,0.00,WUHU216PEETBRO,2013-03-16 23:36:00,
2013-03-16 18:41:00,74.2,0.0,0.00,SW,231,2.4,11.4,0,0.00,,,0.00,WUHU216PEETBRO,2013-03-16 23:41:00,
2013-03-16 18:46:00,73.5,0.0,0.00,SSW,211,6.6,11.4,0,0.00,,,0.00,WUHU216PEETBRO,2013-03-16 23:46:00,
2013-03-16 18:51:00,72.3,0.0,0.00,West,279,6.7,11.4,0,0.00,,,0.00,WUHU216PEETBRO,2013-03-16 23:51:00,
2013-03-16 18:56:00,71.7,0.0,0.00,SW,225,3.7,11.1,0,0.00,,,0.00,WUHU216PEETBRO,2013-03-16 23:56:00,
2013-03-16 19:01:00,71.4,0.0,0.00,WSW,251,7.0,11.1,0,0.00,,,0.00,WUHU216PEETBRO,2013-03-17 00:01:00,
2013-03-16 19:06:00,71.1,0.0,0.00,WSW,255,4.8,9.8,0,0.00,,,0.00,WUHU216PEETBRO,2013-03-17 00:06:00,
2013-03-16 19:11:00,70.5,0.0,0.00,WSW,244,6.2,9.8,0,0.00,,,0.00,WUHU216PEETBRO,2013-03-17 00:11:00,
2013-03-16 19:16:00,69.5,0.0,0.00,SSW,197,3.0,8.8,0,0.00,,,0.00,WUHU216PEETBRO,2013-03-17 00:16:00,
2013-03-16 19:21:00,69.8,0.0,0.00,SE,134,6.0,8.3,0,0.00,,,0.00,WUHU216PEETBRO,2013-03-17 00:21:00,
2013-03-16 19:26:00,69.2,0.0,0.00,SSE,159,3.9,8.3,0,0.00,,,0.00,WUHU216PEETBRO,2013-03-17 00:26:00,
2013-03-16 19:31:00,69.8,0.0,0.00,SSE,151,4.8,8.5,0,0.00,,,0.00,WUHU216PEETBRO,2013-03-17 00:31:00,
2013-03-16 19:36:00,68.2,0.0,0.00,SSW,207,5.0,8.5,0,0.00,,,0.00,WUHU216PEETBRO,2013-03-17 00:36:00,
2013-03-16 19:41:00,68.7,0.0,0.00,ENE,57,1.2,10.3,0,0.00,,,0.00,WUHU216PEETBRO,2013-03-17 00:41:00,
2013-03-16 19:46:00,68.7,0.0,0.00,WSW,248,6.0,11.3,0,0.00,,,0.00,WUHU216PEETBRO,2013-03-17 00:46:00,
2013-03-16 19:51:00,68.2,0.0,0.00,WSW,241,6.6,11.3,0,0.00,,,0.00,WUHU216PEETBRO,2013-03-17 00:51:00,
2013-03-16 19:56:00,67.9,0.0,0.00,SW,217,4.2,9.8,0,0.00,,,0.00,WUHU216PEETBRO,2013-03-17 00:56:00,
2013-03-16 20:01:00,67.0,0.0,0.00,South,175,3.5,12.2,0,0.00,,,0.00,WUHU216PEETBRO,2013-03-17 01:01:00,
2013-03-16 20:06:00,67.9,0.0,0.00,SSW,201,8.3,12.2,0,0.00,,,0.00,WUHU216PEETBRO,2013-03-17 01:06:00,
2013-03-16 20:11:00,67.7,0.0,0.00,SW,227,6.2,10.4,0,0.00,,,0.00,WUHU216PEETBRO,2013-03-17 01:11:00,
2013-03-16 20:16:00,67.0,0.0,0.00,WSW,256,3.8,10.4,0,0.00,,,0.00,WUHU216PEETBRO,2013-03-17 01:16:00,
2013-03-16 20:21:00,67.0,0.0,0.00,SW,220,7.1,12.1,0,0.00,,,0.00,WUHU216PEETBRO,2013-03-17 01:21:00,
2013-03-16 20:26:00,67.3,0.0,0.00,SW,217,1.6,12.1,0,0.00,,,0.00,WUHU216PEETBRO,2013-03-17 01:26:00,
2013-03-16 20:31:00,67.0,0.0,0.00,West,279,4.8,9.1,0,0.00,,,0.00,WUHU216PEETBRO,2013-03-17 01:31:00,
2013-03-16 20:36:00,67.0,0.0,0.00,SW,234,6.9,9.4,0,0.00,,,0.00,WUHU216PEETBRO,2013-03-17 01:36:00,
2013-03-16 20:41:00,66.4,0.0,0.00,SSW,196,5.6,11.6,0,0.00,,,0.00,WUHU216PEETBRO,2013-03-17 01:41:00,
2013-03-16 20:46:00,66.1,0.0,0.00,WNW,285,3.0,11.6,0,0.00,,,0.00,WUHU216PEETBRO,2013-03-17 01:46:00,
2013-03-16 20:51:00,66.4,0.0,0.00,West,265,3.2,10.3,0,0.00,,,0.00,WUHU216PEETBRO,2013-03-17 01:51:00,
2013-03-16 20:56:00,65.9,0.0,0.00,West,259,8.4,10.3,0,0.00,,,0.00,WUHU216PEETBRO,2013-03-17 01:56:00,
2013-03-16 21:01:00,66.1,0.0,0.00,WNW,303,3.2,13.2,0,0.00,,,0.00,WUHU216PEETBRO,2013-03-17 02:01:00,
2013-03-16 21:06:00,65.6,0.0,0.00,WSW,256,7.8,13.2,0,0.00,,,0.00,WUHU216PEETBRO,2013-03-17 02:06:00,
2013-03-16 21:11:00,65.6,0.0,0.00,SW,235,6.6,11.5,0,0.00,,,0.00,WUHU216PEETBRO,2013-03-17 02:11:00,
2013-03-16 21:16:00,65.6,0.0,0.00,WSW,254,3.8,10.5,0,0.00,,,0.00,WUHU216PEETBRO,2013-03-17 02:16:00,
2013-03-16 21:21:00,64.7,0.0,0.00,WSW,247,5.2,9.6,0,0.00,,,0.00,WUHU216PEETBRO,2013-03-17 02:21:00,
2013-03-16 21:26:00,64.8,0.0,0.00,SW,225,3.0,7.3,0,0.00,,,0.00,WUHU216PEETBRO,2013-03-17 02:26:00,
2013-03-16 21:31:00,63.8,0.0,0.00,SW,225,4.8,7.7,0,0.00,,,0.00,WUHU216PEETBRO,2013-03-17 02:31:00,
2013-03-16 21:36:00,65.0,0.0,0.00,WSW,239,4.3,10.4,0,0.00,,,0.00,WUHU216PEETBRO,2013-03-17 02:36:00,
2013-03-16 21:41:00,63.7,0.0,0.00,SSW,210,6.2,12.6,0,0.00,,,0.00,WUHU216PEETBRO,2013-03-17 02:41:00,
2013-03-16 21:46:00,63.9,0.0,0.00,WSW,252,5.3,14.3,0,0.00,,,0.00,WUHU216PEETBRO,2013-03-17 02:46:00,
2013-03-16 21:51:00,64.3,0.0,0.00,SW,230,4.6,14.3,0,0.00,,,0.00,WUHU216PEETBRO,2013-03-17 02:51:00,
2013-03-16 21:56:00,64.2,0.0,0.00,WSW,258,6.3,9.9,0,0.00,,,0.00,WUHU216PEETBRO,2013-03-17 02:56:00,
2013-03-16 22:01:00,63.5,0.0,0.00,West,272,3.7,12.2,0,0.00,,,0.00,WUHU216PEETBRO,2013-03-17 03:01:00,
2013-03-16 22:06:00,63.9,0.0,0.00,SSW,206,2.7,12.2,0,0.00,,,0.00,WUHU216PEETBRO,2013-03-17 03:06:00,
2013-03-16 22:11:00,63.6,0.0,0.00,WSW,241,5.2,9.6,0,0.00,,,0.00,WUHU216PEETBRO,2013-03-17 03:11:00,
2013-03-16 22:16:00,63.3,0.0,0.00,WSW,249,5.3,10.4,0,0.00,,,0.00,WUHU216PEETBRO,2013-03-17 03:16:00,
2013-03-16 22:21:00,63.3,0.0,0.00,WNW,286,4.0,10.4,0,0.00,,,0.00,WUHU216PEETBRO,2013-03-17 03:21:00,
2013-03-16 22:26:00,63.0,0.0,0.00,SW,218,5.1,8.9,0,0.00,,,0.00,WUHU216PEETBRO,2013-03-17 03:26:00,
2013-03-16 22:32:00,63.3,0.0,0.00,WSW,244,4.8,9.4,0,0.00,,,0.00,WUHU216PEETBRO,2013-03-17 03:32:00,
2013-03-16 22:37:00,63.0,0.0,0.00,SSW,203,1.9,9.4,0,0.00,,,0.00,WUHU216PEETBRO,2013-03-17 03:37:00,
2013-03-16 22:42:00,62.5,0.0,0.00,WSW,252,4.8,9.1,0,0.00,,,0.00,WUHU216PEETBRO,2013-03-17 03:42:00,
2013-03-16 22:47:00,62.5,0.0,0.00,WSW,247,6.6,10.2,0,0.00,,,0.00,WUHU216PEETBRO,2013-03-17 03:47:00,
2013-03-16 22:52:00,62.5,0.0,0.00,SSW,194,3.6,10.2,0,0.00,,,0.00,WUHU216PEETBRO,2013-03-17 03:52:00,
2013-03-16 22:57:00,62.5,0.0,0.00,SSE,162,8.9,8.9,0,0.00,,,0.00,WUHU216PEETBRO,2013-03-17 03:57:00,
2013-03-16 23:00:00,62.5,0.0,0.00,WSW,239,4.7,8.9,0,0.00,,,0.00,WUHU216PEETBRO,2013-03-17 04:00:00,
2013-03-16 23:05:00,62.5,0.0,0.00,South,176,2.2,8.9,0,0.00,,,0.00,WUHU216PEETBRO,2013-03-17 04:05:00,
2013-03-16 23:10:00,61.9,0.0,0.00,SSW,196,4.4,9.1,0,0.00,,,0.00,WUHU216PEETBRO,2013-03-17 04:10:00,
2013-03-16 23:11:00,61.9,0.0,0.00,SSE,156,4.2,9.1,0,0.00,,,0.00,WUHU216PEETBRO,2013-03-17 04:11:00,
2013-03-16 23:16:00,61.6,0.0,0.00,SW,215,4.1,9.1,0,0.00,,,0.00,WUHU216PEETBRO,2013-03-17 04:16:00,
2013-03-16 23:21:00,61.6,0.0,0.00,SSW,213,4.2,8.4,0,0.00,,,0.00,WUHU216PEETBRO,2013-03-17 04:21:00,
2013-03-16 23:26:00,61.1,0.0,0.00,WSW,252,3.9,7.3,0,0.00,,,0.00,WUHU216PEETBRO,2013-03-17 04:26:00,
2013-03-16 23:31:00,60.8,0.0,0.00,SW,217,5.8,6.6,0,0.00,,,0.00,WUHU216PEETBRO,2013-03-17 04:31:00,
2013-03-16 23:36:00,60.8,0.0,0.00,South,184,3.4,7.4,0,0.00,,,0.00,WUHU216PEETBRO,2013-03-17 04:36:00,
2013-03-16 23:41:00,61.4,0.0,0.00,SW,231,5.0,8.4,0,0.00,,,0.00,WUHU216PEETBRO,2013-03-17 04:41:00,
2013-03-16 23:46:00,60.5,0.0,0.00,SE,131,2.1,8.4,0,0.00,,,0.00,WUHU216PEETBRO,2013-03-17 04:46:00,
2013-03-16 23:51:00,60.0,0.0,0.00,SSW,213,3.6,5.5,0,0.00,,,0.00,WUHU216PEETBRO,2013-03-17 04:51:00,
2013-03-16 23:56:00,60.1,0.0,0.00,SW,227,2.8,5.0,0,0.00,,,0.00,WUHU216PEETBRO,2013-03-17 04:56:00,